Regional Weather Roundup
Issued by NWS Goodland, KS

Home | Current Version | Previous Version | Text Only | Print | Product List | Glossary Off
Versions: 1 2 3 4 5 6 7 8 9 10 11 12 13 14 15 16 17 18 19 20 21 22 23 24 25 26 27 28 29 30 31 32 33 34 35 36 37 38 39 40 41 42 43 44 45 46 47 48 49 50

000
ASUS43 KGLD 261859
RWRGLD

GOODLAND FORECAST AREA HOURLY WEATHER ROUNDUP
NATIONAL WEATHER SERVICE GOODLAND KS
100 PM MDT THU MAR 26 2015

...OFFICIAL OBSERVATIONS...

CITY           SKY/WX    TMP DP  RH WIND       PRES   REMARKS
GOODLAND KS    PTSUNNY   59  25  27 N23G32    30.12F
HILL CITY KS   PTSUNNY   58  33  39 W12G18    30.11F
IMPERIAL NEB     N/A     57  26  30 NW26G37   30.09F
MCCOOK NEB     PTSUNNY   62  25  24 NW17G25   30.06F
AKRON CO       CLOUDY    55  26  32 N23G30    30.15F
BURLINGTON CO  PTSUNNY   57  22  25 NW26G33   30.15F
LIMON CO       MOSUNNY   53  22  29 N14G29    30.18F
$$

...UNOFFICIAL OBSERVATIONS...

CITY           SKY/WX    TMP DP  RH WIND       PRES   REMARKS
COLBY KS       CLOUDY    59  28  31 W22G30    30.11F
GOVE KS          N/A     59  32  36 MISG        N/A
LENORA KS        N/A     57  32  39 MISG        N/A
NORTON KS      PTSUNNY   55  28  35 SW14G25   30.08F
SHARON SPRINGS   N/A     60  28  29 NW15G28     N/A
TRIBUNE KS     MOSUNNY   61  32  33 W14G24    30.16F
KIT CARSON CO    N/A     56  26  31 MISG        N/A
YUMA CO          N/A     56  24  28 NW23G32     N/A
$$



USA.gov is the U.S. government's official web portal to all federal, state and local government web resources and services.